Location: Ferma
(41.9500°N, 44.5167°E)
Time: 19:36:08
(UTC+00:00)

Cosmos 371 Rocket - Pass Details

Date: 24 October 2021
Orbit: 684 x 699 km, 74.0° (Epoch: 02 December)

Event Time Altitude Azimuth Distance (km) Brightness Sun altitude
Rises 14:46:10 0° 193° (SSW) 3,052 6.9 -8.0°
Reaches altitude 10° 14:48:28 10° 191° (S) 2,142 6.1 -8.4°
Maximum altitude 14:53:16 74° 107° (ESE) 728 3.3 -9.3°
Drops below altitude 10° 14:58:09 10° 23° (NNE) 2,166 5.6 -10.2°
Sets 15:00:29 0° 22° (NNE) 3,089 6.4 -10.6°
